Latham, NY

10:40 AM EDT on August 24, 2016 (GMT -0400)
Albany International

Weather History for KALB - June, 2013

Change the Weather History Date:

Saturday, June 29, 2013

  Actual Average Record
Temperature  
Mean Temperature 75 °F 70 °F  
Max Temperature 83 °F 81 °F 96 °F (1944)
Min Temperature 66 °F 60 °F 44 °F (1970)
Degree Days  
Heating Degree Days 0 0  
Month to date heating degree days 55 53  
Since 1 June heating degree days 55 53  
Since 1 July heating degree days 6316 6681  
Cooling Degree Days 10 6  
Month to date cooling degree days 133 111  
Year to date cooling degree days 182 141  
Since 1 June cooling degree days 133 111  
Growing Degree Days 24 (Base 50)    
Moisture  
Dew Point 65 °F    
Average Humidity 76    
Maximum Humidity 97    
Minimum Humidity 54    
Precipitation  
Precipitation T in 0.12 in 1.77 in (2005)
Month to date precipitation 8.11 3.67  
Year to date precipitation 22.85 18.45  
Sea Level Pressure  
Sea Level Pressure 29.56 in    
Wind  
Wind Speed 5 mph (South)    
Max Wind Speed 16 mph    
Max Gust Speed 24 mph    
Visibility 10 miles    
Events Fog , Thunderstorm    
T = Trace of Precipitation, MM = Missing Value Source: NWS Daily Summary

Daily Weather History Graph

Daily Weather History Graph

Search for Another Location

Airport or City:

Trip Planner

Search our weather history database for the weather conditions in past years. The results will help you decide how hot, cold, wet, or windy it might be!

Date:

Astronomy

Jun. 29, 2013 Rise Set
Actual Time 5:19 AM EDT 8:37 PM EDT
Civil Twilight 4:44 AM EDT 9:12 PM EDT
Nautical Twilight 3:59 AM EDT 9:57 PM EDT
Astronomical Twilight 3:03 AM EDT 10:53 PM EDT
Moon No Moon Rise 12:39 PM EDT (6/29)
Length of Visible Light 16h 27m
Length of Day
15h 17m
Waning Gibbous, 56% of the Moon is Illuminated
Jun 29
Waning Gibbous
Jun 30
Last Quarter
Jul 8
New
Jul 15
First Quarter
Jul 22
Full

Hourly Weather History & Observations

Time (EDT) Temp. Heat Index Dew Point Humidity Pressure Visibility Wind Dir Wind Speed Gust Speed Precip Events Conditions
12:51 AM 70.0 °F - 68.0 °F 93% 29.49 in 10.0 mi Calm Calm - 0.00 in   Overcast
1:51 AM 69.1 °F - 66.9 °F 93% 29.49 in 10.0 mi Calm Calm - N/A Fog Shallow Fog
2:14 AM 69.8 °F - 66.2 °F 88% 29.49 in 10.0 mi Calm Calm - N/A Fog Shallow Fog
2:51 AM 69.1 °F - 68.0 °F 96% 29.49 in 10.0 mi Calm Calm - N/A Fog Patches of Fog
3:51 AM 68.0 °F - 66.0 °F 93% 29.49 in 10.0 mi Calm Calm - N/A Fog Mostly Cloudy
4:51 AM 66.9 °F - 64.0 °F 90% 29.51 in 10.0 mi Calm Calm - N/A   Mostly Cloudy
5:09 AM 68.0 °F - 66.2 °F 94% 29.52 in 10.0 mi Calm Calm - N/A   Mostly Cloudy
5:51 AM 68.0 °F - 66.0 °F 93% 29.54 in 6.0 mi South 3.5 mph - N/A   Mostly Cloudy
6:51 AM 68.0 °F - 66.0 °F 93% 29.56 in 6.0 mi South 4.6 mph - N/A   Overcast
7:51 AM 69.1 °F - 64.9 °F 87% 29.56 in 7.0 mi Calm Calm - N/A   Mostly Cloudy
8:27 AM 71.6 °F - 64.4 °F 78% 29.57 in 9.0 mi Calm Calm - N/A   Mostly Cloudy
8:51 AM 71.1 °F - 63.0 °F 75% 29.56 in 10.0 mi Calm Calm - N/A   Mostly Cloudy
9:51 AM 73.0 °F - 64.9 °F 76% 29.56 in 10.0 mi SE 5.8 mph - N/A   Mostly Cloudy
10:51 AM 73.0 °F - 64.9 °F 76% 29.55 in 10.0 mi SSE 8.1 mph - N/A   Mostly Cloudy
11:51 AM 73.9 °F - 64.9 °F 73% 29.56 in 10.0 mi South 9.2 mph - N/A   Mostly Cloudy
12:51 PM 77.0 °F - 64.9 °F 66% 29.55 in 10.0 mi South 10.4 mph - N/A   Scattered Clouds
1:51 PM 80.1 °F 81.7 °F 64.0 °F 58% 29.54 in 10.0 mi South 13.8 mph 23.0 mph N/A   Scattered Clouds
2:36 PM 80.6 °F 82.3 °F 64.4 °F 58% 29.54 in 10.0 mi South 13.8 mph 24.2 mph N/A Thunderstorm Thunderstorm
2:51 PM 82.0 °F 83.8 °F 64.9 °F 56% 29.54 in 10.0 mi SSE 11.5 mph - N/A Thunderstorm Thunderstorm
3:33 PM 80.6 °F 82.3 °F 64.4 °F 58% 29.55 in 10.0 mi South 6.9 mph - 0.00 in   Mostly Cloudy
3:51 PM 80.1 °F 82.1 °F 66.0 °F 62% 29.55 in 10.0 mi SSW 10.4 mph - 0.00 in   Mostly Cloudy
4:51 PM 82.9 °F 84.4 °F 64.0 °F 53% 29.56 in 10.0 mi South 15.0 mph 20.7 mph N/A   Mostly Cloudy
5:51 PM 80.1 °F 81.5 °F 63.0 °F 56% 29.57 in 10.0 mi South 11.5 mph - N/A   Mostly Cloudy
6:51 PM 79.0 °F - 64.0 °F 60% 29.59 in 10.0 mi SW 6.9 mph - N/A   Mostly Cloudy
7:51 PM 77.0 °F - 64.9 °F 66% 29.61 in 10.0 mi NNW 5.8 mph - N/A   Mostly Cloudy
8:51 PM 75.0 °F - 64.0 °F 69% 29.64 in 10.0 mi Calm Calm - N/A   Mostly Cloudy
9:51 PM 73.0 °F - 63.0 °F 71% 29.66 in 10.0 mi North 3.5 mph - N/A   Mostly Cloudy
10:51 PM 72.0 °F - 64.0 °F 76% 29.68 in 10.0 mi Calm Calm - N/A   Mostly Cloudy
11:51 PM 72.0 °F - 64.0 °F 76% 29.69 in 10.0 mi Calm Calm - N/A   Mostly Cloudy